Wind_Speed
12 12 12 12 12 13 14 14 14 13 13 12 13 12 12 12 11 11 11 11 11 10 9 10 10 8 8 8 8 9 11 15 17 17 17 17 15 14 14 16 19 21 25 29 31 33 31 27 25 24 23 23 22 19 16 16 16 15 15 14 15 16 17 18 22 23 22 23 23 19 16 14 9 7 12 14 8 6 7 9 13 17 19 17 15 14 14
13 14 14 13 13 13 14 14 14 13 13 12 13 13 13 13 13 12 12 11 11 11 10 10 10 9 9 10 11 10 11 15 16 17 17 16 16 17 16 17 20 21 23 27 31 34 33 32 31 28 27 28 26 22 21 21 21 22 20 18 18 18 19 17 19 23 26 25 23 18 14 15 12 9 7 10 9 10 14 14 14 18 21 18 13 13 14
16 16 15 15 14 13 14 14 14 13 13 12 12 13 13 13 13 14 13 13 12 12 11 11 11 10 11 12 13 12 13 15 15 16 17 17 18 19 18 18 20 21 22 23 28 33 33 33 35 35 31 30 29 27 26 26 27 28 25 24 25 24 23 23 22 24 29 29 23 19 16 17 16 12 8 7 9 13 16 14 14 17 20 17 10 10 13
18 18 17 16 15 14 13 14 14 14 13 12 12 13 14 14 14 14 14 13 13 12 13 13 12 12 12 12 13 14 14 15 15 16 17 18 18 18 18 19 20 20 22 24 26 30 33 32 34 38 37 34 32 32 30 29 30 30 30 29 28 27 27 28 28 27 30 32 28 24 21 19 18 16 14 15 15 16 18 19 17 18 22 20 14 13 15
20 19 18 17 16 15 14 14 14 14 13 12 12 13 14 16 16 16 16 16 14 14 14 14 14 13 13 13 13 15 15 15 15 16 17 18 18 20 20 20 21 21 21 23 25 28 32 33 32 36 41 40 38 36 35 33 29 28 30 30 27 27 29 29 29 29 29 30 30 29 25 22 22 21 19 22 19 16 19 18 15 17 23 24 20 19 18
21 19 18 17 16 15 15 14 14 14 14 13 13 13 14 16 17 18 19 18 18 17 16 15 15 15 14 14 14 16 16 15 15 16 17 19 21 22 24 23 23 23 23 23 25 25 27 30 31 33 38 42 43 41 40 38 32 28 31 31 28 28 29 31 32 32 31 29 31 34 31 27 26 25 24 25 21 17 18 16 11 14 19 20 20 20 15
21 20 19 18 17 16 16 15 15 14 14 14 15 15 15 16 17 18 19 20 20 19 19 18 17 17 17 15 16 17 17 16 16 17 19 22 23 24 24 25 25 26 26 26 27 27 26 27 29 31 34 39 44 46 45 42 37 33 33 35 34 32 31 34 36 36 35 31 31 36 37 32 30 29 28 28 24 20 21 20 17 16 16 16 18 20 16
20 20 20 19 18 18 17 17 17 16 16 16 16 17 18 18 19 19 19 20 20 20 21 20 19 19 19 18 18 18 18 18 19 20 21 22 24 26 25 25 27 29 30 30 31 31 30 29 28 28 30 35 41 47 49 48 43 37 36 38 40 39 37 37 38 38 37 32 31 36 39 36 33 33 32 32 29 25 25 27 27 23 18 16 16 16 15
20 21 21 20 20 19 19 19 19 18 18 18 17 18 19 20 20 21 20 20 21 21 21 21 20 20 21 21 21 21 20 19 19 21 22 23 24 26 27 27 27 29 31 33 34 34 33 31 29 27 28 30 35 43 49 51 48 43 39 38 39 41 42 41 38 38 37 33 31 35 39 39 36 35 34 32 30 29 30 32 30 23 17 17 19 18 14
21 21 21 21 21 21 21 20 20 20 20 20 20 19 19 19 20 21 20 20 21 22 22 22 22 21 22 22 23 22 21 21 21 21 22 24 25 27 28 28 28 29 31 33 34 34 33 30 29 27 27 27 29 35 43 50 52 50 47 43 39 38 41 42 40 39 37 35 34 36 39 41 40 38 35 31 30 32 34 34 30 22 18 20 22 19 14
21 21 22 22 22 22 22 22 22 22 21 21 22 21 21 21 21 21 21 20 21 23 23 23 23 23 23 23 23 23 23 23 23 22 22 23 26 28 30 30 29 29 29 30 30 31 31 29 28 27 26 26 28 30 36 44 49 52 54 52 45 40 40 41 42 42 40 37 36 38 39 40 42 43 40 34 32 34 36 35 30 24 22 23 22 18 16
21 22 22 23 23 22 22 23 23 23 23 22 22 22 21 22 22 22 22 22 22 24 24 24 23 23 24 24 24 24 24 24 24 25 25 24 25 28 31 31 30 28 28 28 28 30 31 30 29 28 27 27 28 29 32 38 43 48 53 54 51 47 44 42 43 45 45 42 39 40 41 40 41 44 43 38 35 35 33 31 28 25 25 25 23 21 21
22 23 23 23 23 23 22 23 23 24 25 24 23 23 22 22 22 23 23 23 23 25 26 25 25 25 25 24 24 24 25 25 25 26 27 27 27 29 30 30 29 29 29 29 29 30 31 31 30 29 28 28 29 29 30 35 39 43 48 52 53 53 51 47 45 45 46 45 42 41 41 41 41 42 42 39 38 39 35 31 31 32 30 28 25 23 24
22 24 24 24 24 24 23 23 23 24 25 25 24 24 24 24 23 23 24 24 23 24 26 27 27 27 27 26 25 25 25 25 26 26 28 29 29 30 31 30 30 29 30 30 30 30 31 30 30 30 28 28 30 29 30 33 36 40 44 48 51 52 52 51 49 48 45 44 43 42 41 41 42 43 42 41 40 42 41 38 37 38 35 30 28 27 27
23 25 26 26 25 25 25 24 24 24 25 26 26 25 24 24 24 24 25 25 25 25 25 26 27 27 28 28 28 27 26 26 26 27 28 30 30 31 31 32 31 30 29 29 29 30 30 30 30 30 29 28 29 29 30 32 34 37 40 43 48 51 52 52 52 50 45 42 44 45 44 41 41 42 42 44 44 45 47 44 42 42 38 32 31 30 29
24 26 27 27 27 26 26 26 26 25 25 25 26 25 24 23 24 24 25 26 27 26 25 26 27 26 27 29 29 29 28 28 27 27 28 30 30 31 33 33 32 30 29 29 29 29 29 30 30 30 29 28 27 28 30 31 32 34 36 39 45 50 51 52 52 50 47 45 45 47 48 46 44 41 38 38 39 41 46 47 45 44 40 34 32 31 28
26 27 27 28 28 27 27 27 26 26 26 25 25 25 24 23 23 24 25 26 27 27 26 27 28 27 27 28 29 30 29 29 29 28 28 29 29 30 33 33 32 30 29 29 29 29 29 29 29 30 29 27 26 27 29 30 30 32 33 36 41 46 49 51 52 50 50 49 48 48 49 49 47 41 35 33 32 32 37 42 45 44 41 36 33 31 28
27 28 28 29 28 28 27 27 26 26 25 24 23 24 24 24 24 24 26 27 27 27 27 28 28 29 29 29 30 31 31 31 31 31 30 30 30 31 31 32 32 31 29 29 29 29 29 29 29 29 28 26 25 26 27 28 28 29 31 33 37 42 47 51 52 51 51 52 50 48 47 47 46 42 39 36 34 33 36 39 42 43 42 40 38 35 30
28 29 29 28 28 27 26 26 26 24 23 21 21 22 23 24 25 26 27 27 27 27 27 28 29 29 29 30 31 32 32 32 32 32 32 32 31 32 31 31 31 30 29 29 29 29 29 28 28 27 26 25 25 26 27 26 26 27 29 31 34 38 44 49 51 52 53 53 54 52 49 48 48 45 43 40 37 36 38 39 39 39 40 41 42 41 37
29 30 29 28 26 25 25 24 23 22 20 20 20 22 24 25 26 27 27 27 28 28 28 29 30 29 30 31 32 32 33 33 34 33 33 33 32 32 32 31 30 29 28 28 29 28 27 27 26 26 25 24 24 25 25 25 25 26 28 30 32 35 40 45 49 52 53 54 55 56 54 53 51 49 47 44 42 41 41 42 40 39 38 39 43 43 41
30 29 28 27 25 23 22 22 21 20 20 21 22 24 26 27 27 27 27 27 28 29 30 30 30 30 31 32 32 33 33 34 34 35 34 34 33 32 31 30 29 29 27 27 27 28 26 25 25 25 24 23 23 24 24 24 24 25 26 28 31 33 37 41 45 48 52 54 55 56 56 55 54 53 52 49 46 45 45 45 45 42 39 40 42 43 43
28 27 26 25 23 21 21 20 20 20 21 23 25 26 27 27 27 26 26 27 28 29 30 31 31 31 31 32 33 33 34 34 35 35 35 34 33 32 31 30 29 28 27 26 26 26 26 25 24 24 23 23 22 23 23 23 23 24 25 26 29 32 35 38 41 44 48 50 53 54 54 54 55 55 54 52 49 48 48 48 48 46 43 42 42 43 45
26 25 24 22 21 21 21 21 21 22 24 25 26 27 26 27 27 26 26 27 28 29 30 30 31 32 32 33 34 34 35 35 35 35 35 34 34 33 31 30 29 28 26 24 24 24 24 24 23 22 22 22 22 22 22 22 22 23 24 26 28 31 33 35 37 40 43 46 48 50 51 52 53 54 53 53 52 51 50 50 49 49 48 47 46 45 45
24 24 23 22 22 22 22 22 23 25 26 27 27 27 26 26 27 27 27 27 28 30 31 32 32 33 33 35 36 35 34 34 34 33 33 33 33 32 30 28 27 27 26 23 22 23 23 23 22 21 21 23 23 22 22 22 21 21 23 24 27 29 31 32 34 36 39 42 44 47 49 50 51 51 51 52 53 54 52 50 49 48 48 49 49 47 46
24 24 24 23 23 23 23 24 25 27 28 28 28 27 27 27 27 27 27 28 29 31 32 33 34 34 34 35 36 35 34 33 32 31 30 30 29 29 28 27 26 25 24 22 21 21 22 22 22 21 22 23 23 23 23 22 22 22 22 23 26 28 29 30 32 33 36 38 40 42 45 47 49 49 48 49 51 53 52 51 49 47 46 48 49 47 45
24 24 24 24 24 25 25 26 27 28 29 29 28 28 28 27 27 27 28 29 30 31 32 34 35 34 34 34 35 34 33 32 31 29 28 28 27 25 26 26 24 22 22 20 19 19 20 21 21 22 22 23 23 23 23 23 23 23 22 23 25 27 28 30 30 31 33 35 37 39 40 42 46 48 49 49 50 51 51 51 50 46 45 46 46 44 44
25 25 25 25 25 26 27 28 29 29 29 29 28 28 28 27 28 28 29 30 31 31 32 34 36 35 34 34 33 31 31 30 29 28 27 27 25 24 23 23 22 19 18 18 17 17 18 19 20 21 21 22 22 23 23 23 23 22 22 23 25 26 27 29 30 30 31 32 34 36 38 39 42 45 47 49 49 49 48 48 47 45 45 46 46 45 44
26 26 26 26 27 28 29 30 30 30 29 29 28 28 28 28 28 30 31 31 32 32 33 34 35 34 33 32 30 29 28 27 26 26 25 25 24 23 21 20 19 17 15 15 15 15 16 17 18 19 20 20 21 21 21 21 20 20 21 23 24 24 25 27 28 30 31 31 32 33 34 36 39 41 43 45 46 47 47 47 45 45 46 47 48 47 45
28 28 28 28 29 30 31 31 31 30 29 28 28 28 28 29 30 31 32 33 33 33 34 34 35 34 31 29 28 27 25 25 24 23 23 23 23 22 20 17 15 14 13 13 13 14 15 16 16 17 18 18 19 19 20 19 19 19 20 21 22 23 23 25 27 28 29 30 32 31 31 32 34 37 39 40 42 44 47 47 46 46 47 49 49 47 45
29 30 31 31 31 32 33 32 31 29 28 28 28 28 29 30 31 32 33 33 33 33 33 33 33 32 29 27 27 25 24 23 22 21 21 21 21 20 18 15 12 11 11 11 11 12 12 13 14 14 15 16 16 17 17 17 17 19 20 20 21 22 22 23 25 26 26 28 30 31 31 30 31 33 35 37 39 41 43 44 44 44 46 48 48 46 44
30 31 32 32 33 34 33 31 29 29 29 29 30 30 31 31 32 33 33 33 33 32 31 30 31 30 27 25 25 24 23 22 22 21 20 19 18 16 14 11 10 10 9 9 9 9 9 10 10 10 11 12 12 12 12 13 15 18 20 18 18 20 21 22 23 24 24 25 27 29 30 30 30 31 32 33 35 36 37 39 40 41 42 44 46 46 45
30 30 31 31 32 31 30 28 28 29 30 31 32 32 32 32 33 33 34 33 32 31 30 28 28 28 26 25 24 23 22 22 21 20 19 17 15 13 11 9 9 9 9 9 9 9 9 10 11 11 11 10 9 9 9 11 13 16 16 13 13 17 20 22 22 23 23 24 25 26 27 29 30 30 30 31 32 31 32 34 36 38 39 41 43 44 43
29 28 28 28 28 28 28 28 29 30 31 33 34 34 34 33 33 33 33 33 32 31 30 28 26 26 25 24 24 23 22 21 20 19 17 15 13 10 9 8 8 9 9 9 10 10 10 10 11 12 12 11 10 9 10 11 12 13 14 13 12 14 17 20 22 23 23 24 24 24 25 27 29 30 30 31 31 31 32 33 34 34 36 38 40 41 39
27 26 26 26 27 28 29 30 31 32 34 35 35 34 34 33 33 32 32 32 31 30 29 27 25 25 25 24 22 21 20 19 18 17 15 13 11 9 8 8 7 7 8 9 9 10 10 10 11 11 12 11 11 11 12 12 11 12 14 14 13 13 14 16 19 21 22 24 24 24 24 26 28 29 30 31 31 32 33 33 34 33 33 35 38 40 40
27 27 27 28 29 30 30 32 33 34 35 35 34 33 32 32 32 32 32 32 31 30 28 26 24 24 25 23 20 19 19 18 17 16 13 11 10 9 8 8 8 8 9 9 9 9 10 10 11 12 12 11 11 11 11 12 12 11 11 12 13 13 14 14 16 19 20 22 23 24 24 25 27 28 30 30 30 31 33 34 34 33 32 33 37 39 40
27 28 29 31 31 31 32 32 33 33 33 32 31 30 29 30 31 31 32 32 31 29 28 25 24 23 24 21 18 18 17 16 15 14 12 10 10 9 8 8 8 8 9 9 9 9 9 10 11 13 13 11 10 9 9 10 11 11 11 12 13 14 14 15 16 18 19 20 22 23 24 25 26 28 29 30 30 30 32 33 33 32 32 33 36 39 40
28 30 31 31 32 31 31 30 30 29 28 27 27 28 29 30 31 31 31 31 30 28 27 25 24 23 22 19 18 17 16 15 14 13 11 10 10 9 8 8 8 9 10 9 9 10 10 10 11 12 13 11 10 10 10 11 12 13 13 14 14 15 15 15 16 17 18 19 20 22 24 25 25 27 28 30 30 30 31 31 32 32 32 33 35 38 40
30 31 31 31 30 30 29 29 28 28 27 27 28 30 31 31 31 31 31 30 29 28 26 25 24 22 20 18 17 17 15 13 12 12 12 10 10 9 8 8 8 9 10 10 9 10 10 11 11 11 12 12 11 11 11 13 14 15 16 16 16 16 16 17 17 17 17 18 19 20 22 23 24 26 27 28 30 30 30 30 31 32 33 32 34 36 39
31 32 31 31 31 30 30 30 30 30 29 29 30 30 30 30 30 30 30 29 28 27 25 24 23 21 19 17 16 15 14 12 11 11 11 10 9 9 8 8 8 9 9 10 10 9 10 10 10 11 12 12 12 12 14 15 17 19 19 18 17 17 17 18 19 18 17 17 19 20 21 21 22 24 25 26 28 29 29 29 30 31 32 32 33 35 37
31 32 32 32 32 32 31 31 31 30 30 30 29 29 29 29 29 29 28 26 26 25 24 23 21 19 18 16 15 14 12 10 10 10 9 9 8 8 8 8 8 8 9 9 8 8 9 10 11 12 12 12 13 14 16 18 20 21 21 19 18 18 17 18 19 19 18 18 20 21 22 21 21 22 23 24 25 26 27 28 28 29 30 32 34 34 35
31 32 33 33 34 33 33 32 31 30 29 29 29 29 29 29 28 27 26 24 24 23 23 22 20 18 15 15 14 13 11 9 9 9 9 8 8 8 8 7 7 8 8 8 8 8 8 10 11 12 13 13 15 16 18 20 21 22 21 20 19 18 17 16 17 18 18 19 20 21 22 22 21 21 22 22 23 23 25 26 26 27 29 31 32 33 33
33 33 33 34 34 34 33 32 31 30 29 28 28 28 28 28 27 26 25 24 23 22 21 19 18 16 14 13 13 12 9 8 9 9 8 8 8 8 8 7 6 6 7 8 8 8 8 10 11 12 13 15 17 18 19 20 19 18 17 17 17 16 15 15 15 15 16 17 19 20 20 20 21 21 21 21 20 21 22 23 24 25 27 29 29 30 31
32 32 32 32 32 33 33 32 31 30 29 27 27 27 27 27 26 24 23 23 22 21 19 17 15 15 13 13 12 11 9 9 10 10 9 8 8 8 7 7 5 5 6 7 8 8 9 10 12 13 15 17 18 18 18 17 17 16 15 15 16 15 13 11 11 11 13 14 16 17 18 18 19 19 19 19 19 18 18 19 21 23 26 27 27 28 29
31 31 31 31 31 31 31 30 29 28 27 26 25 26 26 26 25 23 22 21 20 19 17 15 14 14 13 12 12 12 11 10 10 10 9 9 8 8 7 6 6 5 6 7 7 7 8 10 12 14 16 17 17 17 16 16 15 16 15 14 13 12 10 8 7 8 8 10 12 13 15 16 17 17 17 17 17 17 17 17 19 21 23 25 26 26 27
31 30 30 30 30 29 29 28 26 25 24 24 25 25 25 25 24 23 21 19 18 17 16 14 14 14 13 12 12 13 12 11 11 11 10 10 9 8 7 6 6 6 6 7 7 7 8 10 12 14 16 17 17 16 15 15 14 14 14 12 12 11 7 6 7 7 6 5 7 10 12 13 14 14 15 15 15 14 14 15 17 18 20 22 24 24 25
30 30 29 29 29 28 27 26 25 23 23 24 24 25 25 24 23 22 20 19 17 16 15 14 14 14 14 13 12 13 13 12 12 12 11 11 10 9 7 7 6 6 7 7 7 7 8 9 12 14 16 17 16 15 15 15 13 12 12 11 11 10 8 5 5 5 4 3 4 6 8 8 9 11 13 13 13 12 12 12 14 15 16 18 20 22 23
29 28 28 28 27 27 26 25 23 22 23 24 25 25 24 24 23 21 20 18 17 16 15 14 14 14 14 13 13 13 14 13 12 12 11 10 10 10 9 7 6 6 6 6 7 7 7 9 10 13 15 17 16 14 14 14 12 11 10 10 10 9 8 7 6 5 2 0 2 4 6 8 9 10 11 11 11 11 11 11 12 12 13 14 16 18 20
28 27 27 27 26 26 26 24 22 22 23 24 24 24 23 22 22 21 20 18 17 16 15 14 14 14 14 14 13 14 14 13 13 12 11 10 11 10 9 8 7 6 6 6 7 8 9 9 10 11 13 15 14 13 13 14 12 10 10 11 10 9 9 8 8 7 4 3 2 3 5 7 8 9 9 9 10 11 12 12 12 11 11 12 13 15 17
27 26 26 26 25 25 24 22 22 23 24 24 24 24 23 21 21 21 20 18 17 15 15 14 14 14 13 13 14 14 13 12 12 12 11 11 11 11 10 9 8 7 6 6 7 8 9 9 9 9 11 13 14 13 13 12 11 9 8 9 10 10 9 8 8 7 6 4 3 1 1 3 6 6 6 7 10 12 13 12 12 12 12 12 13 14 15
26 26 26 25 24 23 22 22 22 23 24 24 23 23 21 20 20 20 19 18 16 15 14 14 14 13 13 13 13 13 12 12 12 12 12 12 11 11 10 9 9 8 7 6 7 8 9 8 7 8 9 12 13 12 11 10 9 8 7 8 9 9 9 8 7 7 6 5 4 4 4 4 4 5 5 7 10 12 12 11 10 10 10 11 12 13 14
26 25 25 23 22 22 22 22 22 23 23 23 23 21 20 20 20 19 17 16 14 14 13 13 13 12 12 12 12 13 13 13 13 13 13 12 12 11 10 10 10 10 7 6 6 8 8 7 7 7 8 10 12 11 9 7 7 7 7 7 8 9 9 8 7 7 6 5 4 3 3 4 5 5 5 8 11 12 11 8 6 6 7 8 10 11 13
25 24 22 22 22 22 21 22 23 23 22 22 22 20 19 19 19 18 15 14 13 13 13 12 12 11 11 11 12 13 13 13 13 13 12 11 11 11 10 10 10 10 9 6 6 7 7 6 6 6 7 9 10 10 8 6 6 7 8 8 8 8 7 7 7 7 6 5 4 3 3 4 5 5 5 6 7 9 9 6 5 5 6 7 8 10 12
Wind_Direction
339 336 335 337 342 344 345 345 345 348 351 351 349 347 347 344 344 346 345 342 339 335 332 326 318 315 308 295 289 282 273 274 279 281 282 285 288 283 267 255 248 236 225 223 228 228 222 219 218 212 209 209 207 206 199 195 204 214 223 243 258 255 240 216 202 198 194 200 208 209 211 214 197 171 196 207 214 223 240 261 264 267 270 271 280 291 292
339 335 331 330 334 338 341 342 342 342 345 347 345 342 342 340 338 341 342 340 339 337 332 327 321 315 304 292 288 281 271 272 276 278 282 285 280 275 271 261 256 251 238 227 228 233 229 221 220 218 213 215 216 213 209 204 209 219 221 221 231 243 247 238 223 213 205 204 207 204 214 229 205 161 181 214 224 240 251 263 267 263 264 266 276 286 285
334 332 328 324 324 329 334 337 338 340 341 343 342 339 338 339 336 335 338 338 336 330 324 322 319 309 299 294 291 286 277 275 276 276 280 284 280 278 280 276 271 269 261 245 233 237 240 232 227 225 220 217 218 217 216 213 213 218 222 221 219 224 236 244 241 229 216 212 210 198 205 224 207 177 183 215 238 249 246 253 262 255 254 260 272 273 272
326 326 323 319 316 318 325 331 333 336 338 340 341 339 337 337 335 332 332 333 330 323 317 316 313 306 299 295 291 288 282 281 284 287 290 292 290 287 285 279 275 272 268 260 247 242 245 242 232 228 224 218 213 212 215 218 218 218 221 223 222 220 226 236 239 233 221 215 213 203 203 214 201 184 196 214 231 246 238 240 257 256 249 252 258 263 267
320 321 319 315 311 310 313 321 327 329 332 335 337 339 337 335 335 332 329 327 324 320 316 312 312 308 304 303 299 294 292 294 298 299 299 294 287 285 285 282 279 276 270 266 259 253 253 254 245 233 226 221 215 213 215 218 218 217 218 221 223 221 223 229 232 233 226 217 215 211 208 207 196 188 204 215 218 229 230 233 251 256 247 247 260 274 276
315 316 316 313 309 306 305 310 317 321 324 326 329 334 335 334 333 330 328 324 321 319 316 313 314 312 309 309 306 300 301 305 302 296 292 290 288 288 290 290 287 284 279 274 269 264 259 259 257 247 236 228 221 217 217 218 216 216 217 217 217 216 221 226 226 227 227 219 214 215 216 212 201 194 204 212 210 213 217 219 235 246 241 243 260 274 275
311 312 312 311 308 305 302 302 307 312 314 316 320 324 327 330 330 328 325 323 320 318 315 314 316 316 312 310 305 301 303 303 296 290 288 290 291 290 289 289 288 285 281 277 272 268 262 256 253 250 245 236 226 221 219 217 216 218 219 219 219 217 219 226 226 224 224 220 213 216 221 220 208 201 204 207 205 208 213 213 216 221 224 232 251 266 268
308 308 308 309 308 305 302 300 300 303 305 307 311 316 320 323 325 325 324 321 318 317 315 314 315 313 309 306 302 299 300 298 294 292 290 289 289 290 288 285 283 281 280 277 275 273 271 265 258 251 248 241 232 226 222 218 216 219 219 220 224 224 223 228 231 227 224 224 217 217 223 225 213 204 205 206 206 210 216 215 212 210 213 225 243 262 270
305 305 306 307 306 305 302 299 298 298 300 302 305 310 314 318 320 321 321 319 316 315 314 313 313 311 306 302 299 298 298 296 293 292 291 290 289 289 288 284 280 279 279 279 279 278 277 276 272 263 253 245 236 230 226 223 221 221 221 221 225 227 226 229 234 231 228 232 231 222 223 226 220 210 206 207 210 213 216 220 220 218 222 234 241 251 264
304 304 305 306 306 305 302 299 297 296 298 299 301 303 306 311 315 317 317 317 315 314 313 313 312 308 303 300 299 298 297 295 293 292 293 293 292 289 286 284 282 279 277 278 280 282 283 283 280 274 265 253 241 233 229 228 226 225 225 223 224 227 227 228 234 235 234 241 243 231 224 225 225 219 211 210 216 218 217 222 226 225 227 235 240 246 260
305 305 306 307 308 306 303 300 297 296 296 298 300 303 305 308 311 314 314 314 313 312 312 312 311 306 302 300 299 297 296 295 295 295 294 292 291 290 289 289 288 284 280 279 280 282 283 280 274 271 266 255 245 237 232 230 230 230 230 228 227 227 228 229 234 239 241 244 244 238 233 230 228 226 223 220 219 217 217 223 226 224 224 227 231 243 260
305 305 306 307 308 308 306 302 298 296 295 295 296 299 302 305 309 311 312 313 313 311 311 311 309 305 301 299 298 296 295 295 296 296 296 295 293 292 293 294 293 289 284 278 273 271 272 272 269 268 266 256 247 242 237 231 230 233 234 233 230 230 232 233 236 241 245 246 244 241 241 239 233 229 231 231 224 217 216 223 229 231 231 229 230 239 250
304 304 304 306 307 308 307 305 301 298 295 294 293 294 296 299 303 307 309 311 312 311 311 310 307 304 301 300 298 295 293 294 295 297 298 299 297 295 295 295 293 290 284 278 271 267 267 269 270 269 267 260 250 244 240 234 230 232 234 234 232 232 236 238 239 242 245 244 241 239 239 240 238 233 232 233 230 226 227 235 243 245 243 241 240 241 241
305 304 305 306 306 307 306 305 303 301 298 296 294 294 295 296 299 303 306 308 310 310 309 308 307 305 304 301 297 294 293 293 295 297 299 300 299 298 297 295 292 289 285 281 276 272 269 269 270 269 267 263 256 248 243 239 234 231 231 232 232 231 233 236 238 241 242 240 237 234 233 236 237 234 231 231 233 234 235 241 246 245 243 244 247 244 239
307 305 305 306 306 305 305 304 303 303 301 299 297 295 295 296 298 301 304 306 309 310 308 306 305 305 304 302 299 296 295 295 296 297 298 299 300 299 296 294 293 291 288 284 279 275 273 272 272 271 268 265 261 254 246 242 239 235 231 230 231 230 230 232 235 237 237 236 234 233 231 231 233 232 232 235 239 240 240 241 243 242 240 243 248 248 244
308 306 306 306 306 305 304 303 302 302 302 301 299 297 296 296 297 299 303 306 307 309 308 305 304 304 302 300 299 298 296 295 294 295 296 297 299 298 296 295 295 293 288 283 279 276 275 274 272 270 267 263 259 253 248 243 240 239 235 230 229 229 228 229 231 232 233 232 232 233 233 231 230 230 232 236 240 242 240 238 238 238 237 240 245 246 245
307 306 306 306 306 305 304 303 302 301 301 302 301 299 298 297 298 300 303 306 307 308 307 305 304 304 303 300 299 298 296 294 294 295 295 297 296 296 296 297 296 293 288 284 281 279 276 274 272 270 267 264 259 253 249 246 242 240 238 233 230 229 229 229 229 229 231 232 232 232 233 233 232 226 222 225 232 237 237 235 235 236 235 235 239 241 242
308 307 307 306 306 305 304 303 302 301 300 300 300 299 300 301 302 303 305 307 307 308 307 306 306 306 305 303 300 298 297 297 297 297 296 296 295 295 295 295 295 293 289 285 283 280 278 276 273 271 269 266 260 254 250 247 244 241 239 236 232 229 229 230 230 229 230 232 232 231 231 233 233 225 216 216 222 228 233 235 235 235 234 233 234 235 236
308 307 307 307 306 306 305 304 303 302 301 300 299 300 301 303 304 305 307 307 306 307 307 306 307 307 306 303 300 298 298 298 297 297 296 296 296 296 296 294 293 293 291 287 284 282 280 278 275 272 270 265 260 254 250 246 243 240 239 237 235 231 229 230 232 231 230 230 231 231 230 232 234 231 223 219 219 222 229 234 235 235 234 234 233 232 233
307 306 306 306 306 305 305 305 304 303 303 302 302 303 303 304 305 306 306 306 306 307 307 307 308 307 305 302 300 300 300 299 298 298 297 296 297 297 296 295 294 293 290 287 285 282 279 277 274 271 268 265 260 256 253 250 245 241 238 237 236 233 231 230 231 233 233 233 233 233 233 233 235 235 231 226 224 226 232 236 237 235 235 236 235 234 235
306 305 304 305 305 305 304 304 303 304 305 306 307 307 306 306 306 306 306 306 306 307 308 308 308 307 305 303 303 302 301 300 299 298 297 296 296 295 294 294 294 293 290 286 283 279 276 274 272 270 267 264 261 257 255 253 249 245 240 237 235 234 233 233 233 233 235 236 236 237 237 236 236 237 236 233 230 232 236 238 238 236 234 234 236 237 239
306 305 304 303 303 303 302 302 302 303 307 309 310 310 309 307 307 307 307 308 308 308 308 308 308 307 306 305 304 302 301 299 298 297 296 296 296 295 295 296 295 292 289 285 281 279 276 273 270 269 267 265 262 260 258 256 253 250 245 239 235 234 234 234 235 235 235 236 238 240 241 240 239 239 238 238 237 237 238 239 238 236 233 231 233 236 239
307 306 304 302 301 301 300 300 301 304 308 311 312 311 310 309 309 310 310 310 309 309 309 309 308 308 307 306 305 303 302 300 299 298 298 297 296 296 296 296 295 291 288 285 281 277 276 273 270 267 267 265 262 260 259 256 253 251 248 243 239 236 236 235 234 236 237 237 238 240 241 242 241 240 239 238 240 240 240 240 240 239 237 234 233 233 237
307 306 303 301 300 300 300 300 301 305 308 311 311 311 310 309 310 311 311 312 311 310 310 310 310 309 309 307 306 305 304 302 300 299 297 295 295 294 294 294 293 291 288 285 280 276 274 272 269 266 264 263 262 261 259 257 254 251 249 247 243 240 239 237 235 234 236 238 239 239 241 242 243 242 240 239 240 240 240 241 241 242 241 238 235 232 233
305 304 302 301 300 300 300 301 303 305 307 309 310 310 309 309 310 311 311 312 312 311 311 311 310 311 310 308 306 306 305 303 300 298 295 293 293 293 293 293 292 289 287 283 279 276 274 272 270 268 265 264 263 263 262 262 259 255 250 248 247 244 241 239 236 235 235 237 238 239 241 242 243 243 243 242 242 243 241 239 240 242 243 242 238 233 230
301 301 301 301 301 301 302 302 304 305 306 307 309 309 309 309 310 310 310 312 313 313 312 311 311 312 311 308 307 308 307 304 302 299 296 293 292 291 290 290 289 286 283 281 278 275 274 273 272 270 269 268 267 266 264 262 260 258 253 249 248 247 244 241 238 235 235 236 238 238 239 240 242 243 243 243 244 244 243 239 237 238 241 242 240 235 231
297 299 300 300 300 301 303 303 304 304 304 306 308 309 309 309 309 309 310 312 314 314 314 313 312 312 311 309 310 310 309 307 305 302 298 295 295 295 294 292 289 286 283 282 280 277 276 275 274 273 272 272 270 269 267 265 264 262 258 253 251 249 247 245 241 236 235 236 237 238 238 238 239 242 243 243 242 241 241 240 237 235 237 239 239 237 235
291 294 296 298 299 301 303 304 303 302 303 305 307 309 309 309 309 309 310 312 313 314 314 313 312 312 311 311 313 313 312 311 309 305 303 300 300 301 299 294 290 289 288 286 284 282 280 278 277 276 275 273 273 272 270 269 267 262 257 255 253 251 249 248 245 240 238 237 237 238 238 237 238 240 242 243 242 239 239 241 241 238 237 238 239 238 237
288 289 292 295 298 300 302 303 302 300 301 304 306 307 308 309 310 310 311 312 312 313 314 313 312 312 313 314 314 314 314 313 311 308 306 303 302 303 300 293 291 295 296 294 291 288 284 282 280 279 278 277 275 273 271 269 267 263 258 255 253 249 247 248 247 243 241 239 238 238 239 239 239 240 240 242 242 240 238 240 243 243 240 239 240 239 238
288 288 289 292 295 298 300 301 300 299 301 304 305 306 307 308 310 311 311 312 313 313 314 313 311 311 313 314 314 313 312 312 311 309 305 303 303 303 299 296 296 298 297 298 298 295 290 287 286 286 286 284 281 279 277 274 268 263 259 255 252 248 246 247 247 244 243 242 240 239 240 240 241 241 240 240 242 241 239 239 241 243 244 244 243 243 242
290 290 290 290 293 295 298 298 297 298 301 303 304 306 306 307 309 310 310 311 312 313 313 312 309 310 312 313 311 310 310 311 310 308 305 305 303 298 293 291 291 290 291 298 304 302 300 301 303 304 302 298 294 290 285 277 269 265 264 262 257 251 249 249 248 246 244 243 242 240 239 239 240 241 240 239 240 241 240 239 239 241 244 245 244 243 244
292 292 291 291 292 293 294 294 295 298 301 302 304 304 305 306 308 309 309 309 311 312 313 310 308 309 312 311 309 308 310 311 310 308 308 307 304 298 293 290 289 290 294 299 303 305 311 315 316 317 318 319 316 303 285 276 274 274 274 270 260 253 250 249 248 246 244 244 243 241 239 237 238 239 239 238 238 239 239 240 240 241 244 243 240 241 243
294 293 291 291 292 291 291 292 294 297 301 303 303 303 304 305 307 307 307 308 309 311 311 309 307 308 310 308 306 307 310 312 311 310 309 307 302 297 292 287 282 281 282 286 292 302 312 317 315 314 318 321 319 306 291 285 281 278 276 271 262 255 252 249 248 246 244 243 243 242 241 238 236 236 236 235 234 235 237 238 239 241 243 240 236 235 236
293 292 291 291 291 291 292 293 294 297 301 304 303 302 303 304 305 305 306 307 309 310 310 308 308 307 306 304 305 308 312 313 311 309 308 304 297 292 284 275 269 266 269 275 286 297 305 309 310 310 312 312 308 304 304 304 298 288 283 281 275 265 259 254 252 249 246 245 244 243 241 239 236 236 235 234 232 232 234 235 236 237 239 238 234 232 233
289 289 290 292 294 296 297 297 297 299 301 303 303 302 303 303 304 305 306 307 308 310 309 307 307 305 302 303 307 309 310 311 310 307 305 299 293 291 286 277 275 278 281 287 295 300 305 312 312 310 310 310 307 306 307 308 306 300 293 286 279 273 268 263 258 253 249 247 246 245 242 239 237 236 235 234 232 231 231 232 232 232 234 234 233 231 232
291 291 293 295 298 300 300 299 299 300 301 302 303 303 303 303 304 305 305 305 307 308 307 305 303 301 299 302 305 306 306 308 306 301 298 292 287 284 278 274 279 288 292 296 302 304 308 315 314 311 311 310 307 303 300 299 301 301 299 293 286 278 272 265 259 256 253 250 248 246 244 241 237 235 235 235 233 231 230 230 230 230 230 230 230 229 230
295 295 296 298 299 299 299 299 300 302 302 303 304 303 303 303 303 302 302 303 304 304 303 302 299 297 296 299 301 302 303 305 301 295 292 286 281 277 272 271 280 292 297 300 305 308 310 313 312 310 311 310 304 298 295 295 296 298 299 297 292 285 278 271 262 256 254 252 249 246 243 241 239 237 236 235 234 232 232 231 231 229 228 228 229 229 229
295 296 297 299 299 299 299 300 301 303 303 303 301 300 300 301 300 299 300 301 302 301 300 298 296 294 295 297 299 300 302 302 297 293 290 285 280 277 273 270 277 287 293 299 304 307 309 312 312 310 310 309 306 301 300 300 300 300 300 298 293 288 283 277 269 260 253 250 250 247 243 241 241 240 239 237 235 235 234 232 231 230 228 227 229 230 231
294 296 298 299 299 299 299 300 301 303 303 301 298 296 296 296 296 296 298 299 299 299 297 295 294 294 296 298 298 297 298 298 293 289 287 284 282 280 278 277 279 285 292 299 304 306 308 311 312 311 309 307 304 302 302 303 304 303 302 299 296 291 285 279 273 266 256 248 248 248 245 241 239 240 241 239 238 238 237 235 233 232 229 227 228 230 231
295 296 297 297 298 298 298 299 301 303 302 299 296 295 294 293 293 294 296 297 296 295 293 291 291 293 296 299 297 294 293 292 290 286 284 281 279 277 275 276 282 288 295 300 304 306 308 310 313 315 314 312 309 306 304 304 304 303 301 297 293 291 287 280 274 268 259 250 245 245 245 242 238 238 241 241 240 240 240 239 236 234 231 229 229 230 231
295 295 295 296 296 297 297 299 301 303 301 298 295 294 294 293 293 293 295 295 293 290 289 289 290 290 292 293 292 292 292 291 289 286 282 281 281 279 275 276 284 292 300 307 309 309 308 310 313 317 318 315 313 311 310 310 309 307 302 297 294 292 289 283 275 269 262 254 247 244 243 243 241 240 241 242 240 239 240 239 237 233 231 230 230 231 232
295 295 295 295 296 296 296 297 300 301 299 297 295 294 293 293 293 294 294 293 290 287 287 288 289 288 285 284 286 289 291 289 285 282 279 279 278 274 271 274 283 294 303 308 309 308 308 310 312 315 317 319 321 320 317 316 315 314 309 304 301 299 294 286 279 273 265 256 250 245 243 242 241 240 240 241 240 239 239 239 237 234 232 232 232 233 233
296 296 296 296 296 297 297 297 297 297 297 296 295 294 293 293 293 294 293 290 288 288 288 288 287 286 283 281 281 283 281 278 275 274 272 271 270 268 266 268 278 294 305 308 309 313 317 319 317 317 320 325 327 326 321 317 318 320 319 315 311 306 297 289 286 283 270 256 248 243 238 236 236 236 237 238 240 240 240 239 237 234 231 231 231 232 233
298 297 298 298 298 298 297 296 295 295 295 296 296 294 294 294 294 293 291 289 288 288 288 287 284 281 280 278 278 278 278 275 272 270 270 269 267 266 266 267 272 290 304 308 311 318 327 328 324 324 328 331 330 327 325 324 324 327 328 327 323 314 297 282 292 301 283 256 243 236 231 230 232 234 234 234 236 239 242 242 240 235 231 229 228 229 231
297 298 299 299 299 298 296 294 294 295 296 296 295 294 294 295 294 292 291 290 289 287 286 282 279 277 277 277 276 276 275 271 268 268 269 267 261 259 262 266 273 288 302 308 310 314 323 331 331 331 334 336 334 331 332 332 330 332 337 340 339 335 318 289 294 311 304 264 240 230 223 223 226 228 228 227 228 232 236 239 238 234 229 226 226 227 229
296 298 298 298 298 297 295 294 295 297 297 295 294 294 294 294 292 292 292 291 289 285 281 279 278 280 281 280 277 273 270 265 260 260 261 260 257 257 259 263 273 287 297 304 307 307 315 327 331 332 335 338 336 334 337 338 335 335 344 350 350 352 355 344 324 319 308 268 239 221 211 211 215 216 215 214 215 217 222 228 229 227 224 222 223 225 228
296 297 297 297 297 295 295 296 298 298 296 294 294 295 294 293 291 291 291 290 288 285 282 279 279 280 281 280 276 270 265 260 256 254 256 257 257 256 255 255 265 277 287 296 301 302 308 319 324 326 333 338 337 336 341 345 342 341 348 356 358 3 13 19 15 10 7 304 203 198 196 200 206 208 208 206 204 205 207 209 210 211 212 214 217 222 226
295 296 296 296 295 295 295 297 298 295 294 294 295 294 293 291 290 290 290 289 287 284 282 281 280 280 280 279 273 266 261 256 253 252 252 252 251 250 246 245 250 262 277 290 293 293 302 315 323 328 335 341 341 340 345 349 350 352 358 3 5 9 17 22 22 26 44 83 129 180 195 197 201 206 209 207 204 200 197 194 192 194 198 202 207 214 220
295 295 294 294 295 295 296 297 296 294 294 295 294 293 292 290 288 289 291 290 286 282 282 282 282 282 280 276 270 265 260 254 248 246 246 246 247 246 244 240 239 248 268 286 287 286 297 312 320 326 335 342 344 346 350 352 355 4 17 21 17 13 13 15 18 25 41 63 81 102 158 181 193 200 205 205 202 198 192 187 185 187 192 196 201 207 213
293 293 293 294 295 294 294 294 294 293 293 293 292 291 289 287 286 288 289 287 283 281 282 284 284 282 279 273 267 260 251 244 239 238 240 242 244 244 242 237 233 238 258 281 285 285 294 306 310 318 334 343 345 346 351 357 4 19 43 50 39 26 19 18 23 29 38 50 65 86 104 128 159 177 193 206 204 194 184 178 179 183 188 194 199 204 209
292 292 293 294 293 292 292 293 292 292 292 291 290 288 286 284 286 287 286 282 279 279 282 284 285 284 279 271 263 252 241 235 235 236 237 241 244 243 241 239 237 238 250 272 282 283 290 300 306 317 336 347 348 349 357 10 21 33 51 61 50 35 29 25 23 26 36 47 57 81 119 133 139 153 187 209 204 188 175 171 181 191 195 199 203 208 211
291 293 293 292 290 290 292 292 291 291 291 289 288 286 285 285 286 286 283 278 277 279 282 284 284 280 272 262 254 247 239 234 234 235 236 240 244 242 238 238 239 238 241 254 269 274 282 295 305 317 335 349 355 1 12 25 33 42 55 63 55 43 39 36 31 33 45 58 63 83 126 132 131 147 180 199 190 176 172 182 208 218 215 213 212 212 213
Height
5879 5879 5878 5877 5876 5875 5874 5873 5872 5871 5870 5869 5868 5867 5866 5865 5864 5863 5862 5861 5861 5860 5859 5858 5858 5858 5858 5857 5857 5857 5857 5855 5854 5854 5854 5854 5854 5855 5856 5856 5855 5856 5857 5858 5857 5856 5859 5860 5860 5860 5862 5862 5860 5860 5862 5862 5862 5863 5864 5866 5869 5870 5870 5871 5873 5873 5874 5874 5875 5876 5878 5879 5880 5881 5883 5884 5885 5885 5884 5884 5884 5884 5883 5883 5884 5883 5883
5878 5878 5877 5876 5875 5874 5873 5872 5871 5870 5869 5868 5867 5866 5865 5864 5862 5862 5861 5860 5859 5859 5858 5857 5857 5856 5856 5855 5855 5855 5855 5853 5853 5853 5852 5851 5852 5852 5852 5852 5851 5852 5853 5855 5855 5854 5855 5857 5856 5857 5859 5860 5859 5861 5861 5861 5860 5861 5861 5862 5864 5866 5868 5869 5871 5872 5872 5873 5874 5876 5877 5878 5878 5879 5881 5882 5883 5883 5883 5882 5882 5881 5880 5881 5882 5882 5882
5877 5876 5875 5874 5874 5873 5872 5871 5870 5869 5868 5867 5866 5865 5864 5863 5861 5860 5860 5859 5858 5857 5856 5856 5855 5854 5854 5853 5852 5852 5852 5851 5851 5851 5849 5849 5849 5849 5850 5850 5849 5849 5850 5851 5852 5851 5851 5852 5853 5853 5856 5858 5858 5859 5859 5859 5858 5859 5860 5859 5859 5862 5864 5865 5867 5869 5870 5871 5873 5874 5874 5874 5875 5876 5878 5880 5881 5881 5881 5881 5881 5880 5879 5878 5880 5880 5881
5876 5875 5874 5873 5872 5872 5871 5870 5869 5868 5867 5865 5864 5863 5862 5861 5860 5859 5858 5857 5857 5856 5855 5854 5854 5853 5852 5851 5851 5850 5849 5849 5848 5848 5847 5847 5847 5846 5846 5846 5846 5846 5847 5848 5848 5847 5846 5847 5849 5850 5852 5854 5854 5855 5856 5856 5855 5856 5856 5857 5857 5858 5860 5861 5863 5865 5866 5868 5870 5871 5871 5872 5873 5873 5874 5876 5877 5878 5879 5879 5879 5879 5878 5878 5878 5879 5880
5874 5873 5872 5871 5870 5870 5869 5868 5867 5866 5865 5864 5863 5862 5861 5860 5858 5857 5856 5856 5855 5854 5853 5852 5851 5850 5850 5849 5849 5847 5847 5846 5846 5845 5844 5844 5843 5842 5842 5842 5842 5842 5843 5843 5844 5843 5842 5843 5845 5847 5848 5849 5851 5852 5852 5852 5853 5853 5853 5854 5855 5856 5857 5857 5859 5861 5863 5866 5869 5869 5869 5869 5870 5870 5870 5872 5873 5874 5875 5876 5877 5877 5876 5877 5877 5877 5879
5872 5871 5870 5869 5868 5867 5867 5866 5866 5865 5864 5862 5861 5860 5859 5858 5857 5855 5854 5853 5852 5851 5851 5850 5849 5848 5848 5847 5846 5845 5844 5844 5844 5843 5841 5839 5839 5838 5838 5838 5839 5838 5838 5838 5838 5839 5840 5840 5841 5842 5844 5846 5848 5849 5850 5850 5850 5850 5850 5850 5851 5853 5854 5853 5854 5856 5859 5862 5865 5866 5866 5867 5867 5866 5866 5868 5869 5870 5872 5873 5873 5872 5873 5875 5875 5875 5877
5870 5869 5868 5867 5866 5865 5865 5864 5864 5863 5862 5861 5859 5858 5857 5856 5855 5854 5852 5850 5849 5848 5847 5847 5846 5845 5844 5844 5844 5842 5841 5841 5840 5839 5838 5836 5835 5835 5835 5834 5834 5833 5833 5832 5832 5833 5834 5835 5836 5837 5838 5841 5844 5845 5846 5846 5847 5847 5847 5847 5847 5848 5849 5848 5848 5851 5854 5857 5861 5862 5862 5864 5864 5863 5864 5865 5867 5868 5868 5869 5868 5867 5869 5871 5872 5872 5874
5867 5866 5866 5865 5864 5863 5862 5862 5861 5860 5860 5859 5858 5856 5855 5854 5853 5852 5850 5848 5847 5846 5845 5844 5844 5842 5841 5841 5840 5839 5839 5838 5836 5835 5834 5833 5831 5831 5831 5831 5829 5828 5827 5826 5826 5826 5828 5829 5830 5831 5832 5834 5837 5840 5840 5841 5842 5843 5843 5843 5842 5843 5845 5845 5845 5847 5850 5853 5857 5858 5858 5860 5861 5861 5862 5863 5865 5865 5865 5864 5863 5864 5865 5868 5869 5871 5872
5865 5864 5863 5862 5862 5861 5860 5859 5858 5858 5857 5856 5856 5855 5853 5852 5850 5849 5848 5846 5845 5844 5842 5841 5841 5840 5838 5837 5836 5835 5835 5835 5833 5832 5831 5829 5828 5827 5827 5826 5826 5824 5822 5821 5820 5821 5823 5824 5825 5827 5827 5828 5830 5833 5835 5837 5838 5838 5838 5838 5837 5838 5840 5841 5841 5844 5847 5850 5853 5855 5855 5856 5858 5859 5860 5862 5862 5862 5861 5861 5861 5863 5864 5865 5867 5869 5870
5862 5861 5860 5860 5859 5858 5857 5856 5855 5855 5854 5853 5852 5852 5851 5850 5848 5847 5845 5844 5842 5841 5840 5839 5838 5837 5835 5833 5832 5831 5831 5830 5830 5829 5827 5826 5824 5823 5822 5821 5822 5821 5819 5817 5817 5817 5818 5819 5820 5821 5822 5822 5824 5826 5827 5830 5832 5831 5831 5832 5831 5832 5834 5835 5836 5839 5842 5846 5849 5851 5851 5852 5855 5857 5858 5858 5858 5858 5859 5859 5859 5861 5861 5862 5864 5866 5868
5860 5859 5858 5857 5856 5855 5854 5853 5852 5851 5851 5850 5849 5848 5847 5846 5845 5844 5843 5841 5840 5838 5837 5836 5835 5833 5831 5830 5829 5828 5827 5826 5825 5825 5824 5822 5820 5818 5816 5816 5817 5817 5816 5815 5814 5813 5812 5813 5813 5814 5815 5816 5817 5819 5819 5821 5822 5822 5822 5824 5825 5826 5828 5830 5831 5833 5836 5840 5844 5846 5847 5849 5851 5853 5853 5854 5854 5855 5855 5855 5856 5857 5858 5859 5861 5863 5865
5857 5856 5855 5854 5853 5852 5851 5850 5849 5848 5847 5847 5846 5845 5844 5843 5842 5841 5839 5838 5837 5835 5834 5833 5832 5830 5828 5827 5825 5824 5823 5822 5821 5820 5819 5818 5816 5813 5812 5811 5811 5812 5811 5810 5809 5807 5806 5806 5807 5807 5808 5809 5810 5812 5813 5814 5815 5814 5813 5815 5819 5821 5822 5824 5826 5827 5830 5834 5839 5841 5842 5845 5848 5848 5848 5850 5852 5853 5853 5852 5853 5853 5854 5856 5858 5860 5862
5854 5853 5852 5851 5850 5849 5848 5847 5846 5844 5843 5843 5843 5842 5841 5840 5839 5838 5836 5835 5834 5832 5830 5829 5828 5827 5825 5824 5822 5821 5819 5818 5816 5815 5813 5812 5811 5809 5807 5807 5806 5806 5805 5804 5803 5802 5801 5801 5802 5802 5802 5802 5803 5805 5806 5807 5808 5808 5807 5809 5813 5816 5817 5819 5821 5822 5824 5828 5832 5835 5837 5840 5843 5844 5845 5847 5849 5851 5851 5850 5850 5850 5850 5852 5855 5858 5860
5851 5850 5849 5848 5847 5846 5845 5844 5843 5841 5840 5839 5839 5838 5837 5836 5836 5834 5833 5832 5831 5829 5827 5825 5824 5822 5821 5820 5819 5817 5815 5814 5812 5811 5809 5807 5806 5804 5803 5802 5801 5800 5799 5798 5798 5797 5797 5797 5797 5797 5797 5797 5797 5799 5800 5801 5802 5802 5802 5804 5808 5810 5812 5813 5816 5818 5820 5822 5826 5830 5832 5834 5837 5840 5842 5844 5846 5848 5848 5848 5846 5846 5847 5849 5852 5855 5857
5849 5847 5846 5845 5844 5843 5842 5841 5839 5838 5837 5835 5834 5834 5834 5833 5831 5830 5829 5828 5827 5826 5824 5822 5820 5819 5817 5815 5814 5813 5811 5810 5808 5807 5804 5802 5801 5800 5798 5796 5796 5795 5794 5793 5793 5792 5791 5791 5791 5791 5792 5792 5792 5793 5794 5795 5795 5796 5798 5801 5803 5804 5807 5809 5811 5813 5815 5818 5821 5824 5826 5829 5832 5836 5838 5839 5841 5843 5843 5843 5843 5843 5844 5847 5849 5851 5853
5846 5844 5843 5841 5840 5839 5838 5837 5836 5835 5834 5832 5830 5830 5830 5829 5828 5827 5825 5824 5823 5822 5821 5818 5817 5816 5814 5811 5810 5808 5807 5806 5805 5803 5801 5798 5797 5795 5792 5791 5791 5790 5789 5788 5787 5787 5786 5786 5786 5785 5786 5786 5787 5787 5788 5789 5790 5791 5794 5796 5796 5798 5801 5803 5805 5807 5810 5811 5814 5816 5820 5823 5827 5831 5833 5834 5836 5837 5837 5838 5839 5840 5842 5845 5846 5848 5850
5843 5842 5840 5838 5837 5836 5835 5834 5833 5831 5830 5829 5827 5826 5825 5825 5824 5823 5822 5820 5819 5818 5816 5814 5813 5812 5810 5808 5806 5804 5803 5801 5800 5799 5797 5795 5793 5790 5788 5786 5786 5785 5785 5783 5782 5782 5781 5780 5780 5780 5780 5781 5782 5782 5783 5784 5786 5787 5788 5790 5791 5793 5796 5798 5799 5802 5804 5806 5808 5810 5813 5816 5820 5826 5829 5829 5831 5832 5832 5833 5835 5837 5840 5843 5844 5846 5847
5840 5838 5837 5835 5834 5832 5831 5830 5829 5828 5827 5826 5825 5823 5821 5821 5820 5819 5818 5816 5815 5813 5812 5810 5808 5807 5806 5804 5801 5799 5798 5796 5795 5794 5792 5790 5788 5786 5784 5782 5781 5780 5780 5779 5777 5777 5776 5775 5775 5775 5775 5776 5777 5777 5778 5779 5781 5782 5783 5785 5786 5788 5790 5792 5793 5796 5799 5800 5802 5804 5806 5809 5813 5819 5822 5823 5824 5826 5827 5828 5831 5833 5837 5840 5841 5843 5844
5836 5835 5833 5832 5830 5829 5828 5826 5825 5825 5824 5823 5822 5821 5819 5818 5816 5815 5814 5812 5811 5809 5808 5806 5805 5803 5802 5799 5797 5795 5793 5792 5790 5789 5787 5785 5783 5782 5780 5779 5777 5776 5775 5774 5773 5772 5771 5770 5770 5770 5771 5772 5772 5772 5773 5774 5776 5778 5779 5779 5781 5783 5785 5786 5788 5790 5792 5794 5797 5799 5801 5803 5807 5812 5815 5817 5820 5821 5822 5824 5827 5830 5833 5836 5837 5839 5840
5833 5831 5830 5828 5827 5826 5824 5823 5822 5821 5821 5820 5819 5818 5816 5815 5813 5812 5810 5809 5807 5805 5804 5802 5801 5799 5797 5795 5793 5791 5789 5787 5785 5784 5782 5780 5779 5777 5775 5773 5772 5772 5771 5769 5768 5767 5766 5766 5766 5766 5766 5767 5767 5768 5768 5770 5771 5773 5774 5775 5777 5778 5780 5781 5783 5785 5787 5789 5791 5793 5795 5798 5802 5806 5809 5812 5814 5815 5816 5819 5822 5826 5829 5832 5833 5834 5836
5829 5828 5826 5825 5824 5823 5822 5820 5819 5818 5818 5817 5816 5814 5813 5811 5810 5808 5807 5805 5803 5801 5799 5798 5796 5795 5793 5790 5788 5787 5785 5782 5780 5778 5777 5775 5774 5772 5771 5769 5768 5767 5766 5765 5763 5762 5762 5762 5761 5762 5762 5763 5763 5764 5764 5766 5767 5768 5770 5771 5772 5774 5775 5776 5778 5780 5782 5784 5785 5787 5790 5793 5796 5799 5803 5806 5809 5811 5813 5815 5817 5821 5824 5826 5828 5830 5831
5826 5824 5823 5822 5821 5820 5819 5818 5817 5816 5815 5814 5813 5811 5809 5807 5806 5805 5803 5802 5800 5798 5796 5794 5792 5790 5788 5786 5784 5782 5780 5778 5776 5774 5772 5770 5768 5767 5766 5764 5763 5762 5761 5760 5758 5757 5757 5757 5757 5758 5758 5759 5759 5760 5761 5762 5762 5763 5765 5766 5768 5769 5770 5771 5773 5775 5776 5779 5781 5783 5785 5788 5790 5793 5797 5800 5803 5807 5809 5809 5810 5814 5818 5820 5823 5825 5826
5823 5821 5820 5819 5818 5817 5816 5815 5814 5813 5812 5811 5809 5808 5806 5804 5802 5801 5800 5798 5796 5794 5792 5790 5788 5786 5784 5781 5779 5778 5775 5773 5771 5768 5766 5764 5763 5762 5761 5759 5758 5757 5756 5756 5754 5753 5753 5753 5753 5754 5754 5754 5755 5756 5756 5757 5758 5759 5760 5761 5763 5764 5765 5767 5768 5770 5771 5774 5776 5778 5779 5781 5783 5786 5790 5793 5796 5799 5801 5803 5805 5808 5811 5814 5816 5819 5820
5820 5819 5817 5816 5816 5815 5814 5812 5811 5810 5809 5808 5806 5804 5802 5801 5799 5797 5796 5794 5792 5790 5787 5786 5784 5781 5779 5777 5774 5772 5770 5768 5766 5764 5761 5759 5758 5757 5756 5755 5753 5752 5751 5751 5750 5749 5749 5749 5749 5750 5750 5750 5751 5752 5752 5753 5754 5755 5756 5757 5758 5759 5760 5762 5764 5765 5766 5768 5770 5772 5773 5775 5777 5779 5782 5785 5788 5790 5793 5796 5799 5802 5805 5807 5809 5812 5814
5817 5816 5815 5814 5813 5812 5811 5809 5808 5807 5806 5804 5803 5801 5799 5797 5796 5794 5792 5791 5789 5786 5783 5781 5779 5777 5775 5772 5769 5768 5766 5763 5761 5759 5757 5755 5754 5752 5751 5750 5749 5747 5747 5747 5746 5746 5745 5745 5746 5746 5746 5746 5747 5748 5748 5749 5750 5751 5752 5752 5753 5754 5756 5757 5759 5761 5762 5764 5765 5766 5768 5769 5771 5773 5775 5778 5781 5783 5786 5788 5790 5794 5798 5800 5802 5805 5807
5814 5813 5812 5811 5810 5809 5807 5806 5805 5804 5802 5801 5799 5797 5795 5794 5792 5791 5789 5787 5785 5782 5779 5776 5775 5773 5771 5767 5765 5763 5761 5759 5757 5755 5753 5751 5750 5749 5747 5746 5745 5744 5743 5743 5743 5742 5742 5742 5742 5742 5743 5743 5743 5744 5745 5745 5746 5747 5748 5748 5748 5749 5750 5752 5754 5756 5758 5760 5760 5761 5763 5765 5766 5767 5769 5772 5775 5778 5780 5781 5783 5787 5791 5794 5796 5798 5799
5810 5809 5808 5807 5806 5805 5804 5803 5801 5800 5799 5797 5796 5794 5792 5790 5789 5787 5785 5783 5781 5779 5776 5772 5770 5769 5766 5764 5761 5759 5757 5755 5753 5751 5749 5747 5746 5745 5744 5742 5741 5741 5740 5739 5739 5739 5739 5739 5739 5739 5739 5740 5740 5740 5741 5741 5742 5743 5744 5744 5744 5745 5746 5747 5749 5751 5753 5755 5755 5756 5758 5760 5762 5762 5763 5765 5769 5772 5773 5774 5776 5779 5783 5787 5789 5792 5793
5807 5806 5805 5804 5803 5802 5801 5799 5798 5796 5795 5794 5792 5790 5788 5787 5785 5783 5781 5780 5777 5775 5772 5769 5766 5764 5762 5760 5758 5756 5753 5751 5749 5747 5745 5744 5742 5741 5740 5739 5738 5737 5737 5737 5736 5736 5736 5736 5736 5736 5736 5736 5736 5737 5737 5737 5738 5739 5739 5739 5740 5741 5742 5742 5744 5746 5748 5749 5750 5752 5753 5755 5757 5758 5759 5760 5762 5765 5767 5768 5770 5772 5776 5779 5781 5785 5788
5803 5802 5801 5800 5799 5798 5797 5796 5794 5793 5791 5790 5789 5787 5785 5783 5782 5779 5777 5775 5773 5771 5768 5765 5762 5761 5759 5756 5754 5752 5750 5747 5746 5744 5743 5741 5739 5738 5738 5737 5736 5735 5734 5734 5734 5734 5734 5733 5733 5733 5733 5733 5733 5733 5733 5734 5734 5735 5735 5735 5736 5737 5737 5738 5739 5740 5742 5744 5745 5746 5748 5750 5751 5752 5754 5755 5756 5758 5761 5763 5765 5767 5769 5771 5774 5778 5782
5799 5798 5797 5796 5795 5794 5793 5792 5790 5789 5788 5786 5785 5783 5781 5780 5778 5776 5773 5771 5769 5767 5764 5761 5758 5757 5755 5753 5751 5749 5747 5745 5743 5742 5740 5739 5738 5737 5735 5734 5734 5733 5733 5733 5733 5733 5732 5732 5731 5731 5730 5730 5730 5730 5730 5731 5731 5730 5730 5731 5732 5732 5733 5733 5734 5736 5737 5738 5739 5741 5743 5745 5746 5747 5748 5749 5750 5752 5755 5758 5760 5761 5763 5764 5768 5772 5775
5795 5794 5793 5792 5791 5790 5789 5788 5786 5785 5784 5782 5781 5779 5778 5776 5774 5772 5770 5768 5766 5763 5760 5758 5755 5753 5752 5750 5748 5746 5744 5742 5741 5740 5738 5737 5736 5735 5734 5733 5733 5732 5732 5732 5732 5732 5731 5730 5730 5729 5729 5728 5728 5728 5727 5727 5727 5726 5727 5728 5729 5729 5730 5730 5731 5732 5733 5734 5735 5736 5738 5739 5741 5742 5743 5744 5746 5748 5750 5753 5755 5756 5757 5759 5761 5764 5767
5790 5790 5789 5788 5787 5786 5785 5783 5782 5781 5780 5778 5777 5775 5774 5772 5770 5768 5766 5764 5762 5759 5757 5754 5752 5750 5749 5747 5745 5743 5741 5740 5738 5737 5736 5735 5734 5734 5733 5732 5732 5731 5731 5731 5731 5730 5730 5729 5728 5727 5727 5727 5726 5726 5725 5725 5724 5723 5724 5725 5726 5726 5726 5727 5727 5728 5729 5730 5731 5732 5734 5735 5736 5737 5739 5740 5742 5744 5746 5748 5749 5751 5752 5753 5756 5758 5761
5786 5785 5784 5783 5783 5782 5781 5779 5778 5777 5776 5774 5773 5771 5769 5768 5766 5764 5762 5760 5758 5756 5754 5751 5749 5747 5746 5744 5742 5740 5739 5738 5736 5735 5734 5733 5732 5732 5731 5731 5731 5730 5730 5730 5730 5729 5729 5728 5727 5726 5726 5725 5725 5724 5723 5723 5722 5722 5721 5722 5722 5723 5723 5723 5724 5724 5725 5726 5727 5728 5729 5730 5731 5733 5734 5736 5737 5739 5741 5742 5743 5745 5747 5749 5751 5754 5757
5782 5781 5781 5780 5779 5778 5777 5775 5774 5773 5771 5770 5769 5767 5765 5763 5761 5759 5758 5756 5754 5752 5750 5748 5746 5744 5742 5741 5739 5738 5737 5735 5734 5733 5732 5732 5731 5731 5730 5730 5729 5729 5729 5729 5729 5728 5728 5727 5726 5725 5725 5724 5723 5722 5721 5721 5721 5721 5720 5720 5720 5720 5720 5721 5721 5721 5722 5722 5723 5724 5725 5726 5727 5728 5729 5731 5732 5734 5735 5736 5738 5740 5742 5744 5747 5749 5752
5778 5778 5777 5776 5775 5774 5773 5771 5770 5768 5767 5766 5764 5762 5761 5759 5757 5755 5753 5752 5750 5748 5746 5745 5743 5741 5739 5738 5737 5735 5734 5733 5732 5731 5730 5730 5730 5729 5729 5728 5728 5728 5728 5728 5727 5727 5727 5726 5725 5724 5723 5723 5722 5721 5720 5719 5719 5719 5718 5718 5718 5717 5717 5718 5718 5718 5718 5719 5719 5720 5721 5722 5722 5723 5724 5725 5727 5728 5729 5730 5732 5734 5736 5739 5741 5744 5747
5775 5774 5773 5772 5771 5770 5769 5767 5766 5764 5763 5761 5759 5758 5756 5755 5753 5751 5749 5748 5746 5744 5743 5741 5740 5738 5736 5735 5734 5733 5731 5731 5730 5729 5729 5728 5728 5728 5727 5727 5727 5727 5726 5726 5726 5726 5725 5724 5723 5722 5721 5721 5720 5719 5718 5717 5717 5716 5716 5715 5715 5715 5714 5714 5714 5715 5715 5715 5716 5716 5717 5717 5718 5718 5719 5720 5722 5723 5725 5726 5727 5729 5731 5733 5735 5738 5741
5771 5770 5769 5768 5767 5766 5764 5763 5762 5760 5759 5757 5755 5754 5752 5751 5749 5747 5745 5744 5743 5741 5740 5738 5737 5735 5734 5732 5731 5730 5729 5729 5728 5727 5727 5726 5726 5726 5726 5726 5725 5725 5725 5725 5725 5724 5723 5723 5722 5720 5719 5719 5718 5717 5716 5716 5715 5714 5714 5713 5713 5712 5712 5712 5711 5711 5712 5712 5712 5712 5713 5713 5714 5714 5715 5716 5717 5718 5720 5721 5723 5725 5727 5729 5731 5734 5736
5767 5766 5765 5764 5763 5762 5760 5759 5757 5756 5754 5753 5751 5749 5748 5746 5744 5743 5741 5740 5739 5737 5736 5735 5734 5732 5731 5730 5729 5727 5727 5727 5726 5725 5725 5725 5725 5724 5724 5724 5724 5724 5724 5723 5723 5722 5722 5721 5720 5719 5718 5717 5716 5715 5715 5714 5713 5712 5712 5711 5710 5710 5709 5709 5708 5708 5708 5709 5709 5708 5709 5710 5710 5711 5711 5712 5713 5714 5715 5717 5719 5720 5723 5725 5727 5729 5732
5763 5762 5761 5760 5759 5758 5756 5754 5753 5752 5750 5749 5747 5745 5744 5742 5741 5739 5738 5736 5735 5734 5733 5732 5731 5729 5728 5727 5726 5725 5725 5724 5724 5724 5723 5723 5723 5723 5723 5723 5723 5723 5722 5722 5721 5720 5720 5719 5718 5718 5717 5716 5715 5714 5713 5712 5711 5710 5709 5708 5707 5706 5706 5705 5705 5704 5705 5705 5705 5705 5705 5706 5707 5707 5707 5708 5709 5710 5711 5713 5715 5717 5719 5721 5723 5725 5727
5758 5758 5757 5756 5754 5753 5752 5750 5749 5748 5746 5744 5743 5741 5740 5739 5737 5736 5734 5733 5732 5730 5729 5729 5728 5727 5725 5725 5724 5723 5723 5722 5722 5722 5722 5722 5722 5722 5722 5721 5721 5721 5720 5720 5720 5719 5718 5718 5717 5716 5715 5714 5713 5712 5711 5709 5708 5707 5705 5705 5704 5703 5702 5701 5701 5700 5701 5701 5702 5701 5701 5702 5703 5704 5704 5705 5706 5707 5708 5710 5711 5714 5716 5717 5719 5721 5723
5754 5753 5752 5751 5750 5748 5747 5746 5745 5743 5742 5740 5738 5737 5736 5735 5733 5732 5731 5730 5728 5727 5726 5726 5725 5724 5723 5722 5721 5721 5721 5721 5721 5721 5720 5720 5720 5720 5720 5720 5720 5719 5719 5719 5718 5718 5717 5716 5715 5714 5713 5712 5711 5710 5708 5707 5705 5703 5702 5700 5699 5699 5698 5697 5697 5696 5697 5697 5698 5698 5698 5699 5700 5701 5701 5702 5703 5704 5705 5706 5708 5710 5712 5714 5716 5718 5720
5750 5749 5748 5746 5745 5744 5743 5742 5740 5739 5738 5736 5735 5734 5732 5731 5730 5729 5728 5726 5725 5724 5724 5723 5722 5722 5721 5720 5719 5718 5719 5719 5719 5719 5719 5719 5718 5718 5718 5718 5718 5718 5718 5717 5717 5716 5716 5715 5714 5713 5712 5710 5709 5708 5706 5704 5702 5700 5699 5697 5696 5695 5695 5694 5693 5693 5693 5693 5694 5694 5695 5696 5697 5698 5699 5699 5700 5701 5702 5703 5705 5707 5709 5711 5713 5715 5717
5745 5744 5743 5742 5740 5739 5738 5737 5736 5735 5734 5732 5731 5730 5729 5727 5727 5726 5724 5723 5722 5721 5721 5721 5720 5719 5718 5718 5717 5716 5717 5717 5716 5717 5717 5717 5717 5717 5717 5717 5717 5717 5716 5716 5716 5715 5714 5713 5712 5711 5710 5709 5707 5705 5703 5701 5700 5698 5697 5695 5694 5693 5692 5691 5691 5690 5690 5690 5690 5691 5692 5693 5694 5695 5696 5697 5698 5699 5700 5701 5702 5704 5706 5708 5711 5713 5714
5740 5739 5738 5737 5736 5735 5734 5732 5732 5731 5730 5729 5728 5726 5725 5724 5723 5722 5721 5720 5719 5718 5718 5718 5717 5716 5716 5715 5715 5714 5714 5714 5714 5714 5715 5715 5715 5715 5715 5715 5715 5715 5715 5714 5714 5714 5713 5712 5711 5710 5709 5707 5705 5703 5701 5699 5698 5696 5695 5693 5692 5691 5690 5689 5689 5688 5687 5687 5687 5688 5689 5690 5691 5693 5694 5695 5696 5697 5698 5699 5700 5702 5704 5706 5708 5710 5711
5736 5735 5734 5733 5732 5731 5729 5728 5727 5727 5726 5725 5724 5723 5722 5720 5720 5719 5718 5718 5717 5716 5715 5715 5714 5713 5713 5713 5713 5712 5712 5712 5712 5712 5713 5713 5713 5714 5714 5714 5714 5714 5714 5713 5713 5712 5712 5711 5710 5708 5707 5705 5704 5702 5700 5698 5697 5695 5694 5692 5690 5689 5688 5688 5687 5687 5686 5685 5685 5686 5687 5688 5689 5690 5692 5693 5694 5695 5697 5698 5699 5700 5702 5703 5705 5707 5709
5732 5731 5730 5729 5728 5727 5725 5725 5724 5724 5723 5722 5720 5719 5718 5717 5716 5716 5715 5715 5714 5713 5713 5712 5711 5711 5710 5711 5710 5710 5709 5709 5710 5710 5710 5711 5712 5712 5712 5712 5712 5712 5712 5712 5711 5711 5711 5710 5709 5707 5706 5704 5702 5701 5699 5697 5696 5694 5693 5691 5690 5689 5688 5687 5687 5686 5685 5685 5685 5685 5686 5687 5688 5689 5690 5691 5692 5693 5695 5696 5697 5698 5700 5701 5703 5705 5707
5728 5727 5726 5725 5724 5723 5722 5721 5721 5721 5719 5718 5717 5716 5715 5714 5713 5713 5712 5712 5711 5710 5710 5709 5709 5708 5708 5708 5708 5707 5707 5707 5708 5708 5709 5709 5710 5710 5710 5711 5710 5710 5710 5710 5710 5709 5709 5709 5708 5706 5704 5703 5702 5700 5698 5697 5695 5694 5693 5692 5691 5690 5689 5687 5686 5685 5685 5684 5684 5685 5685 5686 5687 5688 5689 5690 5691 5691 5693 5694 5695 5697 5698 5700 5702 5704 5705
5724 5723 5722 5721 5720 5719 5718 5718 5718 5717 5716 5714 5713 5713 5712 5711 5710 5710 5709 5709 5708 5707 5707 5706 5706 5706 5706 5705 5705 5705 5705 5705 5705 5706 5707 5707 5708 5708 5708 5709 5709 5709 5709 5709 5708 5708 5707 5707 5706 5705 5704 5703 5701 5700 5698 5696 5695 5694 5694 5693 5692 5691 5690 5688 5687 5686 5685 5685 5685 5685 5686 5686 5687 5688 5689 5689 5689 5690 5692 5693 5694 5695 5697 5698 5700 5702 5702
5720 5719 5718 5717 5716 5716 5715 5715 5714 5713 5712 5711 5710 5709 5709 5708 5707 5707 5706 5706 5705 5705 5704 5704 5704 5703 5703 5703 5702 5702 5703 5703 5703 5704 5704 5705 5706 5706 5707 5707 5708 5708 5708 5708 5707 5706 5706 5706 5705 5704 5703 5702 5701 5699 5698 5696 5695 5694 5694 5694 5693 5692 5690 5689 5688 5688 5687 5687 5687 5687 5687 5687 5688 5689 5689 5690 5690 5691 5691 5692 5693 5694 5695 5697 5698 5699 5700
5716 5715 5714 5714 5713 5712 5712 5711 5711 5710 5708 5708 5707 5706 5706 5705 5704 5704 5703 5703 5702 5702 5702 5701 5701 5701 5700 5700 5700 5700 5700 5701 5701 5701 5702 5703 5704 5704 5705 5706 5706 5706 5707 5707 5706 5706 5705 5705 5704 5703 5702 5701 5700 5699 5698 5696 5695 5695 5695 5694 5693 5692 5691 5690 5690 5689 5689 5688 5688 5688 5688 5688 5688 5689 5690 5691 5692 5692 5692 5692 5693 5694 5695 5696 5697 5698 5699
5712 5711 5710 5710 5709 5709 5708 5708 5707 5706 5705 5704 5703 5703 5703 5702 5701 5701 5701 5700 5700 5699 5699 5699 5698 5698 5698 5697 5697 5697 5698 5698 5699 5700 5700 5701 5702 5703 5703 5704 5705 5705 5706 5706 5705 5704 5704 5703 5703 5702 5701 5701 5700 5699 5698 5697 5696 5696 5695 5695 5694 5693 5692 5691 5691 5690 5690 5689 5689 5688 5688 5688 5688 5688 5690 5692 5693 5693 5692 5692 5693 5694 5694 5695 5696 5697 5698
5708 5708 5707 5706 5706 5705 5705 5704 5703 5703 5702 5701 5700 5700 5700 5699 5699 5698 5698 5698 5697 5697 5697 5696 5696 5696 5695 5695 5695 5695 5696 5696 5697 5698 5699 5699 5700 5701 5702 5702 5703 5703 5704 5704 5704 5703 5703 5702 5702 5702 5701 5701 5700 5699 5698 5697 5697 5696 5696 5695 5695 5694 5694 5693 5692 5692 5691 5690 5690 5690 5689 5689 5689 5690 5691 5692 5693 5692 5691 5692 5693 5694 5694 5695 5695 5696 5697